This is the latest recevied weather packets stored in our database for station/object KF4ERV-4. If no packets are shown the sender has not sent any weather packets the latest 10 day(s).
| Time | Temp. | Humidity | Pressure | Rain* | Wind** | Luminosity | Snow |
|---|---|---|---|---|---|---|---|
| 1777356355 | 16.11° C | 99% | 1012.9 hPa | 14.73 mm | - | - | - |
| 1777356274 | 16.11° C | 99% | 1013 hPa | 13.72 mm | - | - | - |
| 1777356222 | 16.11° C | 99% | 1012.9 hPa | 14.73 mm | - | - | - |
| 1777355977 | 16.11° C | 99% | 1012.9 hPa | 14.73 mm | - | - | - |
| 1777355931 | 16.11° C | 99% | 1012.3 hPa | 16 mm | - | - | - |
| 1777355679 | 16.11° C | 99% | 1012.3 hPa | 16 mm | - | - | - |
| 1777355641 | 16.11° C | 99% | 1013 hPa | 15.49 mm | - | - | - |
| 1777355370 | 16.11° C | 99% | 1013 hPa | 15.49 mm | - | - | - |
| 1777355351 | 16.11° C | 99% | 1012.2 hPa | 15.49 mm | - | - | - |
| 1777355200 | 16.11° C | 99% | 1012.2 hPa | 15.49 mm | - | - | - |
| 1777355075 | 16.11° C | 99% | 1012.2 hPa | 15.49 mm | - | - | - |
| 1777354818 | 16.11° C | 99% | 1012.2 hPa | 15.24 mm | - | - | - |
| 1777354772 | 16.11° C | 99% | 1012.2 hPa | 15.24 mm | - | - | - |
| 1777354481 | 16.11° C | 99% | 1013 hPa | 14.48 mm | - | - | - |
| 1777354172 | 16.11° C | 99% | 1013.4 hPa | 14.22 mm | - | - | - |
| 1777353876 | 16.11° C | 99% | 1013.9 hPa | 13.21 mm | - | - | - |
| 1777353611 | 16.11° C | 99% | 1013 hPa | 11.43 mm | - | - | - |
| 1777353578 | 16.11° C | 99% | 1013 hPa | 11.43 mm | - | - | - |
| 1777353321 | 16.11° C | 99% | 1013 hPa | 8.13 mm | - | - | - |
| 1777353281 | 16.11° C | 99% | 1013 hPa | 8.13 mm | - | - | - |
| 1777352976 | 16.67° C | 99% | 1012.7 hPa | 2.29 mm | - | - | - |
| 1777352973 | 16.11° C | 99% | 1012.4 hPa | 6.35 mm | - | - | - |
| 1777352914 | 16.67° C | 99% | 1012.7 hPa | 2.29 mm | - | - | - |
| 1777352742 | 16.11° C | 99% | 1012.4 hPa | 3.56 mm | - | - | - |
| 1777352677 | 16.11° C | 99% | 1012.4 hPa | 3.56 mm | - | - | - |
* Rain latest hour (hover to see other rain measurements)
** Current wind speed in m/s (hover to see current wind gust speed)